TimeEST,TemperatureF,Dew PointF,Humidity,Sea Level PressureIn,VisibilityMPH,Wind Direction,Wind SpeedMPH,Gust SpeedMPH,PrecipitationIn,Events,Conditions,WindDirDegrees,DateUTC
12:56 AM,60.1,59.0,96,30.06,8.0,SSW,4.6,-,N/A,Fog,Shallow Fog,200,2013-01-16 05:56:00
1:56 AM,61.0,60.1,97,30.05,10.0,South,6.9,-,N/A,,Partly Cloudy,180,2013-01-16 06:56:00
2:56 AM,61.0,60.1,97,30.04,10.0,SSW,6.9,-,N/A,,Mostly Cloudy,200,2013-01-16 07:56:00
3:14 AM,62.6,60.8,94,30.04,10.0,SSW,4.6,-,N/A,,Overcast,200,2013-01-16 08:14:00
3:19 AM,62.6,62.6,100,30.04,10.0,SSW,4.6,-,N/A,,Overcast,200,2013-01-16 08:19:00
3:36 AM,62.6,62.6,100,30.04,10.0,SSW,5.8,-,N/A,,Overcast,200,2013-01-16 08:36:00
3:56 AM,64.0,63.0,96,30.04,7.0,SSW,6.9,-,N/A,,Overcast,210,2013-01-16 08:56:00
4:19 AM,64.4,64.4,100,30.04,10.0,SW,8.1,-,N/A,,Mostly Cloudy,220,2013-01-16 09:19:00
4:56 AM,64.9,63.0,93,30.03,10.0,SSW,10.4,-,N/A,,Mostly Cloudy,210,2013-01-16 09:56:00
5:56 AM,64.0,62.1,93,30.03,10.0,SW,10.4,-,N/A,,Partly Cloudy,220,2013-01-16 10:56:00
6:56 AM,64.0,61.0,90,30.04,10.0,SSW,9.2,-,N/A,,Scattered Clouds,210,2013-01-16 11:56:00
7:56 AM,64.0,62.1,93,30.05,10.0,SW,8.1,-,N/A,,Scattered Clouds,220,2013-01-16 12:56:00
8:56 AM,66.0,63.0,90,30.06,10.0,SSW,10.4,-,N/A,,Scattered Clouds,210,2013-01-16 13:56:00
9:56 AM,70.0,61.0,73,30.08,10.0,SW,13.8,-,N/A,,Scattered Clouds,220,2013-01-16 14:56:00
10:56 AM,73.0,60.1,64,30.06,10.0,SW,11.5,-,N/A,,Scattered Clouds,220,2013-01-16 15:56:00
11:56 AM,77.0,59.0,54,30.03,10.0,SSW,13.8,-,N/A,,Scattered Clouds,210,2013-01-16 16:56:00
12:56 PM,78.1,59.0,52,30.00,10.0,SSW,13.8,-,N/A,,Scattered Clouds,210,2013-01-16 17:56:00
1:56 PM,78.1,57.9,50,29.99,10.0,SW,19.6,26.5,N/A,,Scattered Clouds,220,2013-01-16 18:56:00
2:56 PM,77.0,59.0,54,29.98,10.0,SW,16.1,23.0,N/A,,Scattered Clouds,220,2013-01-16 19:56:00
3:56 PM,75.9,59.0,56,29.97,10.0,SSW,16.1,-,N/A,,Scattered Clouds,210,2013-01-16 20:56:00
4:56 PM,73.0,59.0,61,29.99,10.0,SSW,12.7,-,N/A,,Scattered Clouds,210,2013-01-16 21:56:00
5:56 PM,68.0,60.1,76,30.00,10.0,South,11.5,-,N/A,,Partly Cloudy,190,2013-01-16 22:56:00
6:56 PM,64.0,59.0,84,30.01,10.0,South,5.8,-,N/A,,Partly Cloudy,190,2013-01-16 23:56:00
7:56 PM,62.1,59.0,90,30.02,10.0,SSW,5.8,-,N/A,,Partly Cloudy,200,2013-01-17 00:56:00
8:56 PM,62.1,59.0,90,30.02,10.0,South,6.9,-,N/A,,Partly Cloudy,190,2013-01-17 01:56:00
9:56 PM,63.0,60.1,90,30.01,10.0,SSW,8.1,-,N/A,,Partly Cloudy,200,2013-01-17 02:56:00
10:56 PM,64.0,60.1,87,30.00,10.0,SSW,9.2,-,N/A,,Clear,200,2013-01-17 03:56:00
11:56 PM,64.0,59.0,84,29.99,10.0,SSW,10.4,-,N/A,,Clear,210,2013-01-17 04:56:00